TimeCST,TemperatureF,Dew PointF,Humidity,Sea Level PressureIn,VisibilityMPH,Wind Direction,Wind SpeedMPH,Gust SpeedMPH,PrecipitationIn,Events,Conditions,WindDirDegrees,DateUTC
12:13 AM,6.8,1.4,79,29.52,10.0,NNW,9.2,-,N/A,,Clear,330,2014-01-14 06:13:00
12:33 AM,6.8,1.4,79,29.52,10.0,NNW,8.1,-,N/A,,Clear,330,2014-01-14 06:33:00
12:54 AM,6.8,1.4,79,29.53,10.0,NW,3.5,-,N/A,,Clear,320,2014-01-14 06:54:00
1:13 AM,6.8,1.4,79,29.54,10.0,Calm,Calm,-,N/A,,Clear,0,2014-01-14 07:13:00
1:34 AM,5.0,-0.4,78,29.54,10.0,Calm,Calm,-,N/A,,Clear,0,2014-01-14 07:34:00
1:54 AM,3.2,-0.4,85,29.54,10.0,North,4.6,-,N/A,,Clear,350,2014-01-14 07:54:00
2:13 AM,3.2,-0.4,85,29.55,10.0,North,3.5,-,N/A,,Scattered Clouds,350,2014-01-14 08:13:00
2:34 AM,3.2,-0.4,85,29.55,10.0,NNW,6.9,-,N/A,,Scattered Clouds,330,2014-01-14 08:34:00
2:54 AM,3.2,-0.4,85,29.56,10.0,NNW,8.1,-,N/A,,Clear,330,2014-01-14 08:54:00
3:13 AM,3.2,-0.4,85,29.56,10.0,NNW,5.8,-,N/A,,Clear,330,2014-01-14 09:13:00
3:34 AM,3.2,-0.4,85,29.56,10.0,North,4.6,-,N/A,,Clear,360,2014-01-14 09:34:00
3:54 AM,3.2,-0.4,85,29.57,10.0,North,6.9,-,N/A,Snow,Light Snow,350,2014-01-14 09:54:00
4:13 AM,3.2,-0.4,85,29.57,10.0,North,9.2,-,N/A,,Scattered Clouds,350,2014-01-14 10:13:00
4:34 AM,3.2,-0.4,85,29.57,10.0,North,8.1,-,N/A,Snow,Light Snow,360,2014-01-14 10:34:00
4:54 AM,3.2,-0.4,85,29.58,3.0,North,9.2,-,N/A,Snow,Light Snow,360,2014-01-14 10:54:00
5:13 AM,3.2,-0.4,85,29.58,2.5,North,9.2,-,N/A,Snow,Light Snow,350,2014-01-14 11:13:00
5:34 AM,3.2,-0.4,85,29.59,3.0,North,10.4,-,N/A,Snow,Light Snow,350,2014-01-14 11:34:00
5:54 AM,3.2,-0.4,85,29.60,4.0,North,6.9,-,N/A,Snow,Light Snow,350,2014-01-14 11:54:00
6:13 AM,3.2,-0.4,85,29.61,4.0,North,9.2,-,N/A,Snow,Light Snow,350,2014-01-14 12:13:00
6:34 AM,3.2,-0.4,85,29.62,7.0,North,9.2,-,N/A,Snow,Light Snow,360,2014-01-14 12:34:00
6:54 AM,3.2,-2.2,78,29.63,10.0,North,9.2,-,N/A,,Scattered Clouds,360,2014-01-14 12:54:00
7:13 AM,1.4,-2.2,85,29.65,10.0,North,10.4,-,N/A,,Clear,350,2014-01-14 13:13:00
7:34 AM,1.4,-4.0,78,29.66,10.0,North,11.5,-,N/A,,Scattered Clouds,350,2014-01-14 13:34:00
7:53 AM,1.4,-4.0,78,29.67,10.0,North,6.9,-,N/A,,Clear,350,2014-01-14 13:53:00
8:13 AM,-0.4,-5.8,78,29.68,10.0,North,4.6,-,N/A,,Clear,360,2014-01-14 14:13:00
8:34 AM,1.4,-4.0,78,29.70,10.0,North,6.9,-,N/A,,Clear,350,2014-01-14 14:34:00
8:54 AM,1.4,-4.0,78,29.70,10.0,North,8.1,-,N/A,,Clear,350,2014-01-14 14:54:00
9:13 AM,1.4,-4.0,78,29.70,10.0,North,10.4,-,N/A,,Clear,350,2014-01-14 15:13:00
9:34 AM,1.4,-4.0,78,29.71,10.0,North,10.4,-,N/A,,Clear,350,2014-01-14 15:34:00
9:54 AM,1.4,-4.0,78,29.72,10.0,NNW,10.4,-,N/A,,Clear,340,2014-01-14 15:54:00
10:13 AM,3.2,-2.2,78,29.73,10.0,NNW,10.4,16.1,N/A,,Clear,340,2014-01-14 16:13:00
10:34 AM,3.2,-2.2,78,29.74,10.0,NNW,9.2,-,N/A,,Clear,340,2014-01-14 16:34:00
10:54 AM,3.2,-2.2,78,29.75,10.0,NNW,6.9,-,N/A,,Clear,330,2014-01-14 16:54:00
11:13 AM,3.2,-2.2,78,29.75,10.0,NNW,10.4,-,N/A,,Clear,340,2014-01-14 17:13:00
11:34 AM,5.0,-2.2,72,29.76,10.0,NNW,9.2,-,N/A,,Clear,340,2014-01-14 17:34:00
11:54 AM,6.8,-0.4,72,29.76,10.0,NNW,12.7,16.1,N/A,,Clear,340,2014-01-14 17:54:00
12:13 PM,6.8,-0.4,72,29.76,10.0,NNW,9.2,16.1,N/A,,Clear,340,2014-01-14 18:13:00
12:34 PM,8.6,-0.4,67,29.76,10.0,North,8.1,-,N/A,,Clear,350,2014-01-14 18:34:00
12:53 PM,10.4,-0.4,62,29.76,10.0,NW,9.2,-,N/A,,Clear,320,2014-01-14 18:53:00
1:13 PM,10.4,-0.4,62,29.77,10.0,NNW,12.7,18.4,N/A,,Clear,330,2014-01-14 19:13:00
1:34 PM,10.4,-0.4,62,29.78,10.0,NW,9.2,19.6,N/A,Snow,Light Snow,310,2014-01-14 19:34:00
1:53 PM,10.4,-0.4,62,29.78,7.0,NNW,12.7,20.7,N/A,Snow,Light Snow,340,2014-01-14 19:53:00
2:13 PM,8.6,-0.4,67,29.80,10.0,NNW,10.4,17.3,N/A,,Clear,330,2014-01-14 20:13:00
2:34 PM,10.4,-0.4,62,29.80,10.0,NW,10.4,19.6,N/A,,Clear,320,2014-01-14 20:34:00
2:54 PM,10.4,-0.4,62,29.82,10.0,NW,11.5,16.1,N/A,,Clear,320,2014-01-14 20:54:00
3:14 PM,10.4,-0.4,62,29.82,10.0,NW,6.9,-,N/A,,Clear,320,2014-01-14 21:14:00
3:34 PM,8.6,-2.2,62,29.83,10.0,NW,10.4,-,N/A,,Clear,320,2014-01-14 21:34:00
3:53 PM,8.6,-2.2,62,29.85,10.0,NNW,8.1,-,N/A,,Clear,330,2014-01-14 21:53:00
4:13 PM,6.8,-2.2,67,29.86,5.0,NW,10.4,-,N/A,,Haze,320,2014-01-14 22:13:00
4:34 PM,6.8,-2.2,67,29.86,5.0,NW,8.1,-,N/A,,Haze,310,2014-01-14 22:34:00
4:54 PM,5.0,-2.2,72,29.86,10.0,WNW,8.1,-,N/A,,Clear,300,2014-01-14 22:54:00
5:13 PM,3.2,-4.0,72,29.87,10.0,WNW,5.8,-,N/A,,Clear,300,2014-01-14 23:13:00
5:34 PM,3.2,-4.0,72,29.87,10.0,WNW,6.9,-,N/A,,Clear,300,2014-01-14 23:34:00
5:54 PM,3.2,-4.0,72,29.87,10.0,NW,8.1,-,N/A,,Scattered Clouds,310,2014-01-14 23:54:00
6:13 PM,3.2,-4.0,72,29.87,10.0,WNW,9.2,-,N/A,,Clear,300,2014-01-15 00:13:00
6:34 PM,3.2,-4.0,72,29.88,10.0,NW,8.1,-,N/A,,Scattered Clouds,310,2014-01-15 00:34:00
6:54 PM,3.2,-4.0,72,29.88,10.0,NW,8.1,-,N/A,,Scattered Clouds,310,2014-01-15 00:54:00
7:13 PM,3.2,-5.8,66,29.88,10.0,NW,9.2,18.4,N/A,,Clear,320,2014-01-15 01:13:00
7:34 PM,3.2,-5.8,66,29.89,10.0,NW,9.2,16.1,N/A,,Scattered Clouds,310,2014-01-15 01:34:00
7:54 PM,1.4,-5.8,72,29.90,10.0,NW,10.4,16.1,N/A,,Scattered Clouds,310,2014-01-15 01:54:00
8:13 PM,1.4,-5.8,72,29.91,10.0,NW,10.4,-,N/A,,Clear,310,2014-01-15 02:13:00
8:34 PM,1.4,-5.8,72,29.91,10.0,NW,10.4,17.3,N/A,,Clear,320,2014-01-15 02:34:00
8:54 PM,1.4,-5.8,72,29.91,10.0,NW,11.5,16.1,N/A,,Clear,320,2014-01-15 02:54:00
9:13 PM,-0.4,-5.8,78,29.91,10.0,NW,9.2,17.3,N/A,,Clear,310,2014-01-15 03:13:00
9:34 PM,-0.4,-7.6,72,29.91,10.0,NW,9.2,-,N/A,,Clear,310,2014-01-15 03:34:00
9:54 PM,-0.4,-7.6,72,29.91,10.0,NW,11.5,18.4,N/A,,Clear,320,2014-01-15 03:54:00
10:13 PM,-0.4,-7.6,72,29.90,10.0,NW,15.0,21.9,N/A,,Scattered Clouds,320,2014-01-15 04:13:00
10:34 PM,-0.4,-7.6,72,29.90,10.0,NW,11.5,20.7,N/A,,Scattered Clouds,320,2014-01-15 04:34:00
10:54 PM,-0.4,-7.6,72,29.90,10.0,NNW,13.8,18.4,N/A,,Scattered Clouds,330,2014-01-15 04:54:00
11:13 PM,-0.4,-5.8,78,29.90,10.0,NNW,15.0,23.0,N/A,,Mostly Cloudy,330,2014-01-15 05:13:00
11:34 PM,-0.4,-5.8,78,29.88,10.0,NW,17.3,26.5,N/A,,Overcast,320,2014-01-15 05:34:00
11:54 PM,-0.4,-5.8,78,29.87,10.0,NW,18.4,26.5,N/A,,Mostly Cloudy,320,2014-01-15 05:54:00